GFSMA_sfc_30mbdewp_150.txt.gz
Dewpoint
42 44 44 44 45 45 45 46 47 49 50 52 57 63 64 64 66 66 65 65 64 64 64 65 63 64 63 64 64 65 66 66 66 67 67 66 66 66 65 65 66 66 66
43 44 43 43 43 44 44 44 45 46 48 50 51 56 61 63 64 65 65 65 64 63 63 64 66 64 64 65 64 65 66 66 65 66 66 66 66 66 65 65 65 65 65
38 41 41 42 41 42 43 43 44 45 46 47 49 51 56 61 62 62 63 63 63 61 59 61 64 65 65 65 66 65 66 66 66 66 66 66 66 65 65 65 65 65 65
35 35 37 38 37 38 39 40 41 40 41 44 44 45 49 55 61 63 63 64 63 61 59 61 63 64 64 66 66 66 66 66 66 66 65 65 65 65 65 65 65 64 65
33 33 34 35 36 36 37 37 36 37 38 40 43 45 45 48 53 60 62 62 63 63 61 62 62 61 63 64 65 64 65 65 65 65 65 65 65 65 65 64 64 64 64
32 32 32 33 34 34 34 35 35 34 36 38 39 41 45 46 47 52 59 61 61 62 62 62 62 62 60 60 62 64 64 65 65 65 66 65 65 65 64 64 64 63 64
30 30 31 32 33 33 34 34 33 33 34 36 37 41 42 46 47 51 58 59 59 60 60 61 61 60 60 58 59 61 65 65 65 65 66 65 65 65 64 64 64 63 63
30 30 30 31 32 31 32 32 31 32 32 33 35 38 39 43 46 46 51 57 57 58 57 57 58 60 60 60 59 60 62 65 65 66 66 66 65 65 64 64 64 63 63
30 30 30 30 30 31 31 31 31 30 32 33 35 38 38 42 43 48 52 56 56 57 58 57 58 59 63 63 63 62 62 63 63 64 66 66 65 65 64 64 63 63 63
30 30 30 29 30 31 31 32 32 32 33 32 34 33 36 40 41 42 46 46 53 56 58 59 59 59 60 61 62 62 61 61 62 64 64 65 64 64 65 64 63 63 63
29 29 30 28 29 30 31 32 32 32 33 33 33 35 35 36 39 42 40 42 48 51 54 53 57 60 61 61 63 62 61 60 60 62 64 64 63 63 64 64 64 63 63
27 29 29 29 29 30 31 31 32 34 34 34 35 35 35 35 36 40 43 43 42 45 47 51 54 55 56 60 61 61 60 60 59 59 61 63 63 63 63 63 64 63 63
28 28 29 28 29 31 31 32 33 32 33 33 35 36 36 36 37 38 39 39 40 41 42 45 46 48 55 59 55 56 59 58 57 58 58 60 62 62 62 62 63 63 63
29 30 29 28 27 30 29 32 31 31 32 32 35 37 37 38 38 38 40 39 37 38 40 42 43 45 53 54 51 56 47 45 48 53 55 57 58 60 61 62 62 62 63
27 28 28 27 26 27 27 29 28 28 29 30 31 32 34 36 39 40 40 40 39 36 36 38 40 46 46 49 48 49 44 42 42 44 47 51 54 57 58 59 59 61 62
25 26 26 25 25 25 25 25 26 27 27 27 29 30 31 32 34 35 37 42 42 41 37 40 41 45 40 44 47 47 45 42 41 41 41 42 44 46 48 50 51 54 58
23 24 25 24 22 23 23 23 23 23 23 23 25 29 28 30 30 31 34 37 40 40 42 41 41 40 36 38 42 44 44 42 40 40 40 39 39 40 40 41 42 43 44
22 23 23 24 20 20 20 21 21 22 21 21 23 26 27 28 28 29 31 33 35 37 38 43 34 35 33 35 37 39 39 41 40 39 38 38 39 38 39 39 39 40 40
21 21 22 24 20 19 19 19 19 19 20 21 23 24 27 26 26 26 28 29 31 31 31 31 30 30 32 30 34 37 33 34 34 36 37 36 36 36 36 37 37 38 38
20 20 21 23 21 19 18 18 18 17 18 19 21 24 25 26 26 25 25 26 26 26 26 25 25 25 27 28 31 32 34 29 27 29 33 34 34 34 34 35 35 35 36
18 19 20 22 23 19 18 17 18 17 16 17 19 21 22 23 24 27 24 24 24 23 22 21 21 21 22 23 24 28 28 34 26 25 29 29 33 33 33 33 33 33 34
17 17 18 20 22 20 17 17 17 17 16 16 17 18 19 20 20 21 22 21 22 21 20 21 20 19 20 21 23 25 18 20 21 22 25 22 28 31 33 31 31 31 32
16 16 17 18 19 19 17 16 17 16 16 16 16 17 17 18 17 17 17 18 19 19 19 19 18 19 18 20 21 21 25 16 15 18 23 20 21 26 32 29 28 28 29
15 16 16 17 18 18 16 16 16 15 15 16 16 16 17 16 16 15 14 13 14 17 17 18 17 19 19 19 20 19 19 22 18 16 20 15 17 20 27 27 25 26 27
15 16 17 17 16 18 17 16 17 16 15 15 17 16 16 16 14 14 12 11 11 12 14 15 15 14 15 15 17 18 16 15 14 13 14 14 13 16 22 24 25 23 24
17 18 17 17 17 16 18 17 18 17 15 15 16 17 14 14 14 13 13 11 9 10 10 11 12 12 13 13 13 14 14 12 13 9 13 12 11 13 15 19 19 21 19

GFSMA_sfc_30mbdewp_153.txt.gz
Dewpoint
40 41 42 43 43 42 43 43 44 45 47 48 50 51 53 56 62 64 66 65 64 65 66 66 66 66 65 65 63 63 64 65 66 66 67 66 66 65 66 66 66 66 66
35 36 37 39 38 38 40 41 41 44 44 46 46 48 50 53 58 62 64 65 64 63 65 66 65 64 62 58 65 65 64 65 66 65 66 66 66 65 65 65 65 65 66
33 33 34 35 35 35 36 38 38 38 38 39 41 45 47 48 51 57 62 64 64 63 64 64 63 61 60 63 65 63 64 65 65 65 65 65 66 65 65 65 65 65 65
33 32 33 33 34 34 35 35 35 35 35 35 37 39 44 47 48 51 58 62 63 63 62 62 63 62 63 61 61 63 64 65 65 65 65 65 65 65 65 65 65 65 65
32 31 32 32 33 34 34 34 34 35 34 34 35 36 38 41 44 46 48 57 60 62 62 62 60 63 63 62 64 63 64 65 64 64 64 65 65 65 65 65 65 65 65
30 31 31 32 32 33 32 32 33 33 33 33 35 35 36 38 42 46 47 49 58 58 61 62 61 60 62 62 63 63 64 64 63 64 64 64 65 65 65 64 64 64 64
30 30 31 30 30 30 31 31 31 31 30 31 31 35 36 41 42 41 45 48 54 58 59 60 62 62 61 61 62 62 63 63 62 64 64 64 64 65 65 64 64 64 64
30 29 30 30 29 29 30 31 31 31 30 31 31 31 34 39 43 44 44 47 53 58 58 59 60 61 61 61 60 60 61 61 62 63 63 63 64 64 64 64 64 64 64
29 29 29 30 28 29 30 30 31 33 31 31 31 32 33 37 37 45 49 48 52 56 57 57 57 58 59 60 60 60 59 59 61 61 63 64 62 63 64 64 64 64 63
28 30 28 30 28 29 29 30 30 31 32 30 32 31 34 34 35 37 41 46 53 55 56 57 58 58 58 60 62 62 62 61 60 60 61 64 64 63 63 63 63 64 63
28 28 28 29 28 29 30 31 31 31 33 32 32 33 33 34 35 36 36 37 42 47 48 53 52 50 54 60 61 61 61 60 60 60 61 61 64 63 64 62 61 63 63
28 28 27 27 26 28 29 30 32 32 32 32 33 34 34 34 35 36 37 38 40 44 43 48 48 47 55 53 54 50 48 53 56 57 59 61 62 62 61 62 63 63 63
27 27 26 25 26 28 27 29 29 29 30 30 31 33 35 36 37 35 35 36 38 40 41 44 45 51 53 52 51 47 45 45 48 52 55 58 60 62 63 62 63 63 62
27 27 27 26 26 26 26 26 27 27 28 28 30 31 32 37 38 38 36 36 37 37 38 41 44 46 49 49 47 44 43 42 44 46 50 52 55 57 59 60 61 63 63
24 25 26 23 24 25 24 25 25 25 26 27 28 29 31 32 33 37 39 38 38 35 34 37 39 42 45 47 47 43 41 41 41 41 43 46 48 49 51 52 53 54 56
24 24 25 22 21 22 23 23 24 23 23 24 26 28 28 30 31 32 35 39 41 39 35 39 41 39 39 44 45 43 41 39 39 40 40 41 42 43 43 44 45 46 47
23 23 24 21 20 20 21 21 21 22 22 23 25 27 27 28 28 30 33 36 39 40 39 40 39 37 36 38 39 42 40 39 38 38 38 38 38 39 40 40 41 41 41
22 23 24 21 19 19 20 19 19 20 21 21 24 25 26 27 26 28 30 31 33 33 36 33 33 34 32 34 36 35 36 36 36 36 36 36 36 36 37 37 38 38 39
21 22 23 22 19 18 19 19 18 19 20 21 23 24 25 25 24 25 27 27 29 28 29 30 28 29 31 29 34 32 31 31 32 33 34 35 34 34 34 35 35 36 36
20 21 23 23 19 20 18 18 18 18 19 20 22 22 25 25 24 24 24 25 26 26 26 25 24 25 25 26 29 29 30 27 25 29 31 33 33 32 32 31 33 33 33
19 20 21 23 19 19 20 17 18 18 18 18 19 20 21 22 23 24 23 22 22 22 22 21 21 21 21 22 23 23 28 28 24 24 26 26 32 29 29 29 30 29 28
18 17 19 20 19 19 19 19 17 17 16 17 18 18 17 17 18 19 20 19 20 19 19 18 18 18 18 19 23 21 20 23 21 22 24 20 25 29 28 27 28 27 26
16 17 17 17 17 18 18 18 17 15 15 15 16 17 16 15 14 14 15 17 18 18 18 18 17 17 17 18 20 22 16 16 15 16 23 14 18 24 25 26 22 25 25
15 16 17 17 18 18 17 17 17 15 15 16 15 16 15 15 14 12 11 11 12 17 17 17 17 17 16 16 18 18 19 17 13 12 16 9 13 17 24 23 20 17 21
16 16 16 17 17 18 17 17 17 16 15 16 17 16 16 14 13 12 9 8 8 9 13 14 13 13 14 14 14 12 12 14 11 9 13 10 10 12 18 18 20 13 15
16 16 15 15 18 18 18 17 17 17 14 16 17 15 14 14 13 10 10 8 6 7 8 9 9 10 10 10 11 11 11 7 7 6 10 10 8 9 8 12 14 12 13

GFSMA_sfc_30mbdewp_156.txt.gz
Dewpoint
33 34 35 37 36 35 36 37 39 40 40 40 42 43 44 47 50 55 59 62 64 65 66 66 67 66 65 66 65 65 64 64 64 63 63 65 66 66 66 66 66 65 65
32 32 33 33 33 33 34 35 36 36 38 39 39 39 41 44 46 48 52 58 61 64 65 65 66 65 66 65 66 65 65 65 65 64 63 64 64 66 65 66 66 65 65
32 32 33 32 33 34 35 34 34 35 34 35 35 37 38 40 42 46 49 53 59 62 64 63 64 65 67 65 64 63 63 63 63 65 64 63 65 65 65 65 65 65 65
32 31 31 32 33 33 33 33 33 34 34 33 33 34 36 39 41 42 46 48 54 60 63 63 63 65 64 64 63 62 60 59 62 64 64 63 63 65 65 65 65 65 65
31 31 31 32 31 31 31 31 31 32 31 31 31 31 33 35 36 37 39 43 47 53 61 62 62 63 63 63 61 63 61 59 61 63 64 63 63 64 65 64 64 65 65
31 31 31 30 29 29 29 30 30 31 31 31 30 31 32 34 37 37 38 40 43 48 55 60 61 61 61 63 63 64 62 61 61 63 64 63 62 62 63 64 64 64 64
30 29 29 30 28 28 29 30 30 30 30 32 31 30 31 32 34 36 41 43 44 45 53 55 59 61 61 61 63 63 62 62 63 64 64 64 62 62 62 64 64 64 64
29 28 28 30 28 28 28 29 29 29 31 30 29 30 31 32 35 36 41 40 43 47 52 56 56 59 60 61 61 61 62 62 62 63 65 63 63 63 62 62 64 64 64
28 28 28 29 28 27 28 29 30 29 29 29 30 31 28 30 32 37 38 45 46 49 54 56 57 58 60 61 61 61 60 60 61 62 62 62 62 62 63 61 62 64 64
29 28 28 28 27 28 29 29 29 31 32 30 31 33 34 34 30 31 34 36 39 46 52 54 52 56 58 58 59 60 60 59 59 60 60 60 60 61 62 60 60 61 64
29 27 27 26 26 27 28 27 30 30 30 31 31 31 32 34 35 33 30 32 36 44 47 49 50 53 53 55 50 48 48 52 58 60 61 61 61 62 63 63 61 61 62
27 27 27 26 26 27 26 26 29 28 28 28 30 31 31 31 32 33 34 35 38 41 43 48 50 51 51 49 47 46 45 46 49 53 56 59 61 61 62 62 62 62 62
26 26 27 26 26 26 25 26 27 26 27 27 27 29 31 33 36 35 35 34 34 37 40 46 47 49 49 46 45 44 43 43 45 48 51 54 57 59 62 63 63 62 61
25 25 25 24 24 25 25 25 25 24 25 25 26 28 29 32 33 36 36 35 33 37 39 42 44 47 48 45 43 42 41 41 42 43 46 48 50 52 55 57 59 61 60
24 24 24 21 22 22 23 23 24 23 24 24 25 28 28 30 32 33 34 36 36 34 35 42 42 41 46 43 42 40 39 39 39 40 41 43 44 45 46 48 49 50 52
23 23 24 21 20 21 21 21 22 22 22 24 25 27 27 28 30 31 32 35 40 37 35 41 38 38 41 43 41 39 38 38 38 38 38 38 39 40 41 42 43 44 45
23 23 23 20 19 20 20 20 20 21 21 22 23 26 25 27 27 28 31 33 35 37 39 36 36 36 35 37 38 38 37 36 37 36 36 36 36 36 37 37 38 38 39
22 23 23 20 19 19 20 20 19 20 20 21 22 23 25 25 25 26 28 29 31 31 36 32 31 33 32 35 34 33 34 35 35 35 35 34 35 35 35 35 34 35 36
21 23 23 19 20 18 19 19 19 19 20 20 21 22 24 24 23 24 25 26 28 29 29 30 27 29 30 30 31 29 29 30 31 33 33 33 32 32 31 31 30 30 32
21 22 23 20 20 20 18 18 18 19 19 19 20 20 22 24 24 23 22 23 25 25 25 25 24 24 25 27 29 29 25 25 25 28 29 31 30 30 30 28 28 27 28
20 21 21 21 20 20 19 17 17 17 18 18 18 17 18 19 21 22 21 21 21 22 21 22 21 20 20 22 22 24 27 24 23 23 26 26 29 27 25 26 27 26 25
17 17 18 18 19 20 19 17 17 16 16 16 16 16 15 15 16 18 20 19 20 19 18 17 16 17 17 18 23 21 23 24 21 20 23 21 26 25 23 21 23 23 23
16 16 17 17 17 19 19 19 18 15 15 15 15 15 15 14 12 12 14 15 17 17 17 16 15 15 15 16 20 13 13 13 13 15 20 13 17 22 23 18 16 20 20
15 16 17 17 18 19 18 18 17 15 15 16 15 15 14 14 13 10 9 10 10 15 16 16 16 16 16 15 15 17 17 12 10 12 14 6 11 16 20 18 12 15 17
15 15 16 18 17 18 17 17 17 16 15 15 16 16 15 13 11 10 7 6 6 7 11 12 12 12 13 12 12 10 9 11 7 7 10 7 6 9 13 15 13 10 14
15 15 15 16 19 18 18 16 16 16 14 16 16 16 14 13 12 9 9 6 5 5 6 7 7 8 8 9 10 9 9 4 5 3 7 6 5 7 3 11 11 10 11

GFSMA_sfc_30mbdewp_162.txt.gz
Dewpoint
35 34 34 33 33 32 32 33 34 35 36 36 37 38 37 38 38 38 38 41 45 45 49 54 60 65 66 67 68 67 66 66 66 67 66 66 66 66 66 66 66 66 66
36 33 32 31 31 32 34 34 35 35 35 35 35 35 36 36 36 37 37 37 41 43 43 48 53 58 64 66 67 67 67 66 66 66 66 66 66 65 65 65 66 66 66
35 34 32 32 33 34 34 34 34 34 34 34 35 35 35 35 35 36 36 37 37 39 44 45 46 53 58 63 66 66 67 66 66 66 66 66 66 65 65 65 65 65 65
36 33 31 33 36 33 33 34 33 34 34 34 34 34 35 35 36 37 37 36 36 36 37 41 47 48 55 61 65 66 66 66 66 65 65 65 65 65 65 64 65 65 65
35 33 32 35 35 33 33 33 33 34 33 33 33 32 33 34 35 34 36 39 40 40 38 37 41 47 54 60 62 65 65 65 65 65 64 64 65 64 64 64 63 64 65
33 32 32 35 34 32 32 33 33 33 33 32 32 32 33 34 36 37 38 38 43 42 45 41 38 37 45 52 61 62 64 64 65 65 64 64 64 63 64 63 63 63 64
33 32 32 33 33 32 33 33 32 32 32 32 32 31 33 33 38 37 33 35 37 39 39 47 42 39 37 57 61 61 63 63 64 64 64 63 63 62 63 63 63 63 63
32 30 32 31 33 32 33 32 32 31 31 31 30 30 30 31 35 31 34 35 35 38 41 46 48 40 39 43 55 61 61 63 63 63 64 62 63 63 63 62 61 62 63
31 32 32 32 32 31 31 31 31 30 29 30 30 31 30 28 30 32 32 34 37 39 40 44 49 43 39 44 56 58 54 59 62 63 63 62 62 62 62 60 60 63 64
30 30 30 31 32 31 30 30 29 30 29 28 29 30 30 31 29 29 32 33 35 37 39 42 48 50 51 50 49 48 50 56 59 61 62 62 62 62 62 62 62 62 63
29 25 27 29 30 29 29 30 29 29 28 28 27 27 28 29 29 32 30 31 34 37 40 42 48 46 45 45 45 46 48 52 56 58 59 61 62 61 61 61 62 62 62
24 22 22 26 28 28 28 28 29 28 28 28 27 26 27 28 28 29 29 30 33 36 40 42 46 44 43 43 43 44 46 49 53 55 57 59 61 62 62 62 62 62 62
20 19 20 23 25 27 28 28 27 27 27 27 27 27 27 28 29 30 31 30 32 35 38 42 46 42 42 42 42 42 43 45 47 49 51 53 55 58 58 60 62 62 62
19 20 20 20 24 26 26 27 25 26 26 27 26 27 27 28 29 30 31 30 29 34 38 41 43 42 41 41 40 40 41 42 43 44 45 47 48 49 50 54 56 59 61
17 21 20 20 22 24 24 25 24 24 25 26 27 27 27 27 28 30 32 33 31 29 33 37 39 41 40 40 39 39 39 39 39 40 42 43 44 44 45 46 47 48 51
23 21 20 20 21 22 23 23 22 23 23 24 25 26 26 27 27 29 31 33 33 32 31 36 35 39 39 38 38 38 37 37 36 37 37 39 40 41 41 41 42 44 44
22 20 20 20 21 22 23 23 22 22 22 22 23 25 25 26 26 28 29 30 31 31 31 33 34 36 34 35 36 36 36 35 35 35 33 33 34 36 37 38 38 39 40
23 21 22 21 20 21 22 22 21 22 21 21 21 22 24 25 26 27 27 29 29 31 32 30 30 31 31 32 32 33 33 34 32 32 33 32 31 32 33 34 35 35 36
25 21 23 23 21 20 20 20 21 21 21 20 21 21 21 23 24 26 26 27 28 30 30 30 28 29 30 31 31 30 28 31 31 30 29 29 29 29 29 29 31 32 33
23 21 22 23 22 21 19 19 19 19 20 20 20 19 20 20 22 23 24 26 27 28 29 28 25 25 26 28 29 28 25 24 25 28 27 26 26 25 24 25 26 27 28
21 18 19 20 19 18 19 20 19 18 18 19 17 14 17 18 18 20 20 22 24 24 25 25 24 23 22 23 22 25 26 24 24 24 24 21 19 19 21 21 21 22 23
23 23 21 23 23 19 19 19 19 19 16 16 17 16 11 13 14 16 17 17 18 20 21 21 20 20 20 22 25 24 24 25 23 25 25 22 19 16 17 19 18 19 19
22 22 23 23 23 21 19 19 20 21 20 19 18 17 14 12 9 8 12 15 16 16 16 15 15 16 18 20 24 22 23 22 19 20 27 22 26 20 14 16 16 16 17
22 22 22 23 23 20 18 18 20 21 21 20 18 18 16 15 13 11 12 14 15 14 15 16 15 14 15 18 19 16 15 16 14 15 20 16 22 21 19 15 15 15 15
23 22 23 22 22 20 18 18 20 20 20 19 18 16 16 15 13 12 12 11 13 14 14 13 13 13 12 13 16 14 15 13 13 14 15 17 17 21 20 19 17 16 15
22 23 23 22 22 21 17 18 19 18 19 19 19 17 14 13 13 12 13 12 11 12 13 14 14 15 14 13 13 14 15 12 14 13 12 16 16 17 22 19 17 17 17

GFSMA_sfc_30mbdewp_165.txt.gz
Dewpoint
38 36 35 33 32 33 36 36 37 38 38 38 39 39 38 39 39 38 39 40 43 42 43 44 47 52 57 62 66 66 67 67 66 66 66 67 67 66 67 66 66 66 66
38 34 33 32 32 36 37 36 37 37 37 38 37 38 38 38 38 39 39 39 41 42 41 42 43 45 48 55 61 65 66 66 67 66 66 66 66 66 66 66 66 66 66
37 36 33 33 36 36 36 35 36 37 37 36 36 37 37 37 37 38 39 39 39 40 42 43 42 42 45 47 52 60 64 66 66 66 66 66 66 66 66 66 66 66 65
37 34 32 35 39 35 35 36 36 37 36 36 36 35 35 36 37 38 38 37 38 40 41 42 42 44 45 44 45 54 60 64 66 66 66 65 66 65 65 65 65 65 65
36 34 33 37 38 34 36 37 37 36 36 35 34 33 35 36 36 36 38 39 40 42 43 42 45 48 44 43 44 47 55 62 65 66 66 65 65 65 65 65 65 65 65
34 34 32 36 36 35 36 37 37 36 35 34 33 33 33 35 37 37 39 34 34 40 40 41 46 47 48 45 46 44 46 59 63 65 65 65 65 65 64 64 64 64 65
34 33 32 33 35 35 36 36 35 34 33 33 33 32 33 34 35 37 34 36 38 38 39 42 42 46 49 48 44 47 46 54 61 63 65 65 64 64 63 64 64 64 64
33 30 33 32 35 35 35 34 34 33 31 33 31 31 30 31 32 31 35 36 37 38 37 40 41 44 50 51 43 52 55 59 60 62 64 64 64 64 64 64 64 64 64
31 32 32 33 34 33 32 32 32 31 31 31 31 31 29 28 29 31 32 34 35 35 38 41 42 45 45 48 49 49 49 52 58 62 63 63 63 63 64 64 64 64 64
31 30 31 32 32 31 31 31 31 30 30 28 29 29 29 30 29 28 30 31 33 32 38 41 42 43 43 44 45 46 48 50 54 59 62 63 63 63 63 62 62 62 63
29 26 27 30 31 30 31 31 30 30 29 28 28 28 28 29 28 31 28 28 29 32 38 41 43 43 42 42 43 45 46 49 53 57 60 62 62 62 62 62 62 62 61
25 25 24 27 29 29 30 29 30 29 29 28 29 28 28 28 28 28 28 27 28 32 35 43 43 42 41 41 41 43 44 47 50 55 57 59 61 62 62 62 62 61 62
22 23 23 25 26 28 28 29 29 28 27 27 28 28 29 29 29 29 30 29 29 30 36 43 43 41 40 41 40 40 41 43 46 48 50 51 53 56 59 61 62 61 61
21 23 23 23 26 26 26 27 26 25 27 28 27 28 29 29 30 30 31 30 28 29 35 38 42 41 40 39 38 38 37 39 41 43 45 46 47 48 51 55 57 60 60
20 24 23 23 24 24 25 25 24 25 25 26 26 27 28 29 30 30 32 33 31 28 30 37 35 39 39 39 38 36 36 36 37 39 40 41 42 43 45 47 49 51 53
25 24 23 23 24 25 25 24 23 24 24 25 24 25 27 28 29 30 31 32 33 31 29 34 34 35 36 36 36 36 34 35 36 35 36 37 37 38 39 41 43 45 46
24 23 23 23 23 24 25 25 23 24 23 23 24 24 24 26 28 29 30 30 31 31 29 32 33 33 32 32 33 35 32 32 33 33 33 34 35 35 36 37 37 38 40
24 23 23 22 22 23 24 23 23 23 23 23 22 22 22 23 26 29 29 29 30 31 30 29 30 30 30 32 31 29 32 31 31 32 31 30 31 31 32 33 34 35 34
25 23 24 24 23 22 22 21 22 22 22 22 22 21 21 21 22 26 27 29 30 32 31 29 28 30 31 30 31 28 27 27 31 26 29 31 28 29 29 29 30 31 33
24 23 25 25 24 22 21 20 21 21 23 22 20 20 20 19 20 21 23 25 29 28 29 29 28 28 28 29 29 27 25 26 25 25 20 23 26 24 27 27 28 26 28
23 21 22 22 20 18 20 22 20 19 20 20 18 14 16 18 18 19 19 21 24 25 24 24 24 23 24 26 25 27 26 26 25 26 23 16 18 20 20 21 22 26 23
24 27 23 25 23 18 20 21 21 21 19 18 19 16 12 14 15 16 17 17 18 19 20 18 19 20 21 22 27 27 27 27 24 28 28 24 19 17 18 18 20 21 21
25 25 26 25 24 22 20 21 23 23 22 22 20 18 15 14 13 12 15 15 16 16 16 14 15 16 17 20 22 22 24 21 20 21 27 23 25 21 18 17 18 18 18
24 24 24 25 23 21 19 20 22 24 22 21 20 20 18 17 15 14 15 17 16 15 16 17 16 16 17 19 22 18 17 19 17 19 21 19 24 23 20 19 18 18 18
25 26 24 25 23 21 18 19 22 24 22 21 18 17 17 16 15 16 15 15 16 17 17 16 16 16 15 15 18 19 18 19 17 15 18 20 21 23 23 22 20 20 17
26 24 23 24 23 21 18 18 21 21 22 21 21 18 14 14 14 15 16 16 16 16 17 18 18 18 17 17 15 17 18 15 17 13 15 18 20 21 24 22 21 21 21

GFSMA_sfc_30mbdewp_168.txt.gz
Dewpoint
41 39 39 37 38 40 40 40 41 41 41 41 41 41 41 41 42 42 42 43 44 42 42 43 43 44 46 47 51 56 60 65 65 66 66 66 66 66 65 66 67 67 66
41 38 38 38 40 40 39 40 40 41 41 41 40 40 41 41 41 41 42 42 43 45 44 42 42 43 43 44 47 51 54 59 64 65 66 65 65 66 65 65 66 66 66
40 38 38 40 41 40 39 40 40 40 40 39 39 39 39 38 39 39 41 41 41 41 46 47 47 47 48 48 44 45 49 52 57 63 65 66 65 65 65 65 65 66 66
39 38 38 41 41 39 40 40 40 39 39 39 37 36 36 38 39 38 39 41 41 43 44 43 45 46 48 48 50 49 45 49 52 59 63 65 65 65 65 65 65 65 65
39 38 39 40 40 39 40 39 39 39 37 36 35 35 37 36 37 38 41 39 37 42 41 41 43 43 45 47 49 51 51 45 49 53 60 64 64 65 65 65 65 65 65
37 36 38 38 38 38 39 39 38 38 37 35 35 35 34 37 40 36 36 37 39 40 39 39 40 42 44 47 50 53 53 49 45 49 56 62 65 64 65 65 65 65 65
36 36 35 37 38 38 38 36 36 35 34 35 33 31 33 34 33 31 37 37 36 37 38 38 40 42 44 44 47 49 52 54 50 48 50 59 64 64 65 65 65 64 65
35 35 35 35 37 36 36 36 34 33 33 33 32 32 30 31 31 31 33 35 34 33 34 37 41 43 43 43 44 46 47 50 53 57 54 56 62 63 64 65 65 64 64
34 34 34 35 35 35 34 34 33 32 31 30 32 30 29 28 29 30 31 32 32 31 33 36 40 44 42 42 43 43 45 47 51 54 59 59 62 63 64 64 64 64 64
31 31 33 34 34 34 34 33 32 32 31 28 29 30 29 29 29 27 29 30 29 29 31 37 41 43 41 41 41 42 44 46 50 53 56 59 59 62 63 64 63 64 64
29 28 30 32 32 32 33 32 32 33 31 29 29 29 28 29 29 29 26 27 28 29 32 37 43 41 41 40 40 40 41 43 48 54 56 58 60 61 62 62 63 63 64
30 27 28 30 31 31 31 31 32 31 31 28 28 28 29 29 28 29 27 27 27 29 31 42 42 41 39 38 39 38 39 40 44 47 50 53 57 60 61 62 62 63 63
28 27 26 28 29 29 30 30 31 29 31 29 28 27 30 30 31 30 30 28 28 29 32 40 41 40 39 37 37 37 37 38 39 42 45 48 49 53 56 59 62 61 62
27 26 26 27 27 27 28 29 29 27 29 30 28 28 29 30 30 31 31 30 28 28 30 35 39 38 38 38 36 35 36 36 36 38 40 43 44 46 48 50 55 59 60
26 26 25 26 26 27 27 27 28 27 28 28 29 27 27 29 31 31 32 32 30 27 28 35 33 36 37 36 35 34 33 35 34 35 36 38 39 41 42 44 47 50 54
27 26 26 26 26 27 27 26 27 26 27 27 27 26 25 27 29 30 31 33 32 31 27 33 32 33 33 34 34 32 31 32 33 32 33 34 35 37 37 38 40 42 46
27 26 26 25 26 27 26 26 25 25 26 25 25 25 24 25 26 29 30 30 32 31 28 31 32 32 32 31 31 32 33 29 31 32 30 30 32 33 34 35 34 36 38
26 26 25 24 25 25 25 25 25 25 24 24 24 23 22 23 23 27 28 28 30 33 30 30 30 31 30 31 30 28 29 31 27 29 30 30 30 30 31 31 33 32 32
27 26 26 25 24 24 23 24 25 25 24 23 23 22 21 21 21 23 25 25 29 31 33 29 29 31 31 31 30 29 28 28 24 19 25 27 29 29 30 29 30 30 32
27 27 27 26 25 23 23 22 23 25 24 22 22 21 21 20 20 20 21 22 25 28 28 27 27 25 27 30 31 28 25 27 26 23 18 19 21 23 25 27 27 29 29
26 26 27 25 21 20 23 24 22 22 22 22 19 16 19 20 19 19 19 19 20 21 22 22 23 22 22 23 25 27 28 27 27 27 25 19 18 19 20 22 26 26 26
30 28 27 26 22 18 23 25 23 23 22 21 20 16 14 17 18 18 18 18 18 17 17 16 16 17 18 20 23 25 23 24 24 25 26 23 20 19 19 20 20 24 26
28 28 27 26 23 21 22 24 24 24 23 22 22 20 17 17 16 16 17 16 17 17 17 16 16 17 17 20 22 22 19 17 20 20 23 23 25 21 20 20 20 20 21
26 27 25 25 23 21 22 22 22 24 22 21 21 20 18 17 17 17 18 19 19 18 18 18 18 17 18 19 20 22 22 19 18 20 19 19 25 23 22 21 21 20 20
27 26 26 25 23 19 20 20 23 24 22 19 18 18 17 16 17 18 17 16 17 19 20 19 19 18 17 16 18 18 19 20 19 15 16 19 22 25 23 21 22 19 21
27 25 24 25 23 21 18 19 22 24 24 23 20 17 15 15 15 17 17 18 18 17 19 19 19 19 19 17 16 16 16 15 14 11 15 17 18 22 22 21 22 21 21

GFSMA_sfc_30mbdewp_171.txt.gz
Dewpoint
40 39 39 39 39 40 39 40 41 41 41 41 40 40 40 41 41 42 43 45 45 43 43 45 48 50 50 50 49 48 47 49 52 57 61 65 65 65 65 65 66 67 67
39 39 40 40 39 40 40 40 40 40 40 40 39 39 39 37 37 39 40 41 43 44 48 48 48 49 49 49 50 50 50 49 49 51 55 59 65 65 65 64 65 66 66
39 39 41 39 40 41 40 40 40 40 39 39 38 37 36 36 38 40 39 40 42 45 45 46 47 46 46 47 49 50 50 52 53 50 53 54 59 65 65 64 64 65 66
39 40 40 38 40 41 40 39 39 38 37 37 36 36 36 37 36 38 39 41 42 41 40 42 41 43 45 47 48 49 51 53 52 53 52 53 56 60 65 65 64 64 65
39 39 39 38 40 40 39 38 37 36 36 35 32 35 36 34 37 34 38 37 40 39 39 38 40 43 44 46 46 47 49 51 52 55 56 51 53 57 63 65 64 64 64
38 38 38 38 39 38 37 36 34 34 35 32 32 32 33 36 32 34 38 34 35 34 35 37 39 42 44 44 45 46 48 50 52 53 55 55 51 53 58 63 65 64 64
36 36 38 37 38 36 36 34 34 33 33 32 31 31 32 33 31 33 35 32 32 31 32 34 38 41 44 42 43 44 46 47 49 52 54 56 55 51 53 59 64 64 64
36 36 36 36 36 34 34 33 33 31 31 32 29 31 28 29 30 31 33 30 30 30 31 32 37 42 41 41 42 42 43 45 48 52 54 56 57 57 52 57 62 63 64
35 35 35 35 35 34 33 32 32 31 28 30 30 29 26 26 28 30 30 29 29 29 30 34 40 42 40 39 40 40 41 43 48 51 55 56 57 58 58 59 61 60 60
33 34 34 34 34 34 33 32 33 30 29 28 29 29 29 29 27 27 29 29 29 29 31 34 42 40 39 38 39 39 39 40 44 48 50 54 57 57 56 58 60 61 62
30 32 33 32 33 33 33 31 32 30 29 28 28 28 27 29 29 28 26 27 28 29 31 39 41 39 38 37 37 38 37 38 40 44 47 52 54 56 58 58 61 61 63
29 30 31 31 31 31 31 32 31 30 28 28 28 27 28 29 28 29 27 27 27 28 31 41 38 39 38 36 36 36 35 35 37 40 43 46 49 53 57 60 61 61 62
28 28 29 30 30 30 30 31 28 30 29 28 27 27 29 30 30 30 30 28 28 29 31 38 38 37 36 35 34 34 34 34 34 36 39 41 43 46 49 54 59 60 61
27 27 29 29 28 28 28 29 27 29 30 28 27 27 28 30 31 31 31 30 27 28 29 34 37 34 36 35 33 32 33 32 33 33 35 38 39 40 43 45 50 54 58
27 27 28 27 27 27 28 27 26 28 27 29 27 26 27 29 30 31 31 32 30 26 27 33 31 33 35 34 35 32 32 33 32 33 32 34 36 37 38 40 43 46 50
27 28 27 27 27 27 27 27 26 27 26 26 26 25 25 26 28 30 30 31 32 30 27 31 31 32 32 31 33 33 30 30 32 32 33 32 33 34 35 35 37 40 42
29 27 27 28 28 27 26 26 26 26 25 24 24 23 23 23 25 27 29 29 31 32 28 31 32 32 30 29 29 29 32 25 29 30 32 32 31 31 32 33 33 34 36
27 27 27 27 27 26 26 25 25 25 24 23 22 21 21 20 21 24 26 27 29 33 30 28 29 30 29 31 28 27 28 26 22 22 25 31 31 30 30 31 32 31 32
27 27 27 26 26 26 25 25 25 24 24 23 22 20 20 20 19 20 21 22 25 29 31 28 27 27 30 29 30 28 27 28 24 20 20 22 26 29 30 30 31 31 31
27 27 26 25 25 24 24 26 25 24 22 21 22 20 20 19 19 19 19 19 21 23 24 24 22 22 23 24 26 26 25 26 25 24 20 20 21 23 28 28 30 31 31
28 27 26 25 23 24 24 24 24 24 22 20 19 20 21 20 20 20 19 17 18 18 18 18 17 17 18 19 21 24 24 26 25 24 21 19 20 20 22 23 26 30 32
28 28 27 20 19 23 26 25 24 23 22 20 16 15 17 19 19 18 18 18 17 16 15 15 15 15 16 18 20 22 17 20 19 22 23 22 21 22 21 22 22 24 29
28 26 23 21 21 23 26 25 24 23 21 20 20 19 17 18 19 19 18 18 18 18 17 16 16 16 17 18 19 21 18 19 18 18 21 21 20 20 23 21 21 21 23
26 24 22 21 21 23 24 24 23 20 19 18 17 16 15 16 17 19 20 19 19 18 18 18 17 17 17 18 19 20 21 18 17 17 18 20 21 20 21 22 21 22 24
25 24 23 20 20 22 23 23 21 17 15 16 15 14 14 15 19 18 15 15 16 17 21 20 20 19 17 15 16 16 16 20 15 13 16 17 19 19 20 19 20 19 20
24 25 24 21 19 19 22 23 25 21 17 16 16 15 16 16 18 18 16 17 17 18 17 16 15 16 18 16 14 13 14 9 10 9 13 15 17 19 17 19 18 18 17